User: anonymous   Login
Location: Village de las Huertas
(35.3014°N, 106.4095°W)
Time: 22:01:06
(UTC+00:00)
Language:

Cosmos 2360 Rocket - Orbit

View from above orbital plane
View from above orbital plane
View from above satellite
View from above satellite

Ground track
Ground track

The orbit data is extracted from the following two-line orbital elements,

1 25407U 98045B   21016.56551741 -.00000259  00000-0 -10744-3 0  9995
2 25407  71.0107 169.7188 0007611 349.7753  10.3214 14.15834730161240
Epoch (UTC): 16 January 2021 13:34:20
Eccentricity: 0.0007611
inclination: 71.0107°
perigee height: 834 km
apogee height: 845 km
right ascension of ascending node: 169.7188°
argument of perigee: 349.7753°
revolutions per day: 14.15834730
mean anomaly at epoch: 10.3214°
orbit number at epoch: 16124

The dashed part of the orbit path shows where the satellite is in the earth's shadow,  

DLR